Atlantic - Newfoundland: Past 24 Hour Conditions

 

Natashquan Airport

03:00 PM EDT 23 August 2014
This table is a summary of hourly weather conditions for the past 24 hours.
Date / Time
(EDT)
Wind(knots) Conditions Visibility(km) Pressure(kPa) Air tempC) Relative humidity(%) Dew pointC)
23 August 2014
15:00 SSW 10 gust 15 Sunny 16 101.9 19 70 13
14:00 SSW 8 Sunny 16 101.9 20 63 12
13:00 S 9 Sunny 16 101.9 21 58 13
12:00 S 8 Partly Cloudy 16 101.9 20 59 12
11:00 ENE 4 Partly Cloudy 16 101.9 21 53 11
10:00 ESE 5 Sunny 16 102.0 20 57 11
9:00 NE 8 Sunny 16 102.0 19 58 11
8:00 NE 5 Sunny 16 102.0 18 66 11
7:00 NNE 8 Sunny 16 102.0 15 79 11
6:00 NNE 8 Sunny 16 102.0 12 87 10
5:00 N 5 Clear 16 102.0 12 88 10
4:00 N 3 Clear 16 101.9 13 90 11
3:00 NNE 4 Mainly Clear 16 102.0 13 92 12
2:00 N 3 Cloudy 16 102.0 13 96 13
1:00 N 3 Cloudy 16 102.0 12 96 12
0:00 NNW 5 Mostly Cloudy 16 102.1 12 97 11
22 August 2014
23:00 N 2 Clear 16 102.1 12 97 12
22:00 W 4 Clear 16 102.1 14 95 13
21:00 W 4 Clear 16 102.1 14 95 13
20:00 WSW 5 Clear 16 102.1 15 92 14
19:00 W 7 Mainly Sunny 16 102.1 16 85 13
18:00 W 8 Mostly Cloudy 16 102.1 17 79 13
17:00 WSW 9 Mostly Cloudy 16 102.1 18 78 14
16:00 WSW 9 Cloudy 16 102.1 18 77 14
15:00 WSW 9 Cloudy 16 102.1 18 74 13
 
Map of Atlantic - Newfoundland marine weather areas Southwestern Grand Banks - 44138 Banquereau - 44139 Tail of the Bank - 44140 Nickerson Bank - 44251 Northeast Burgeo Bank - 44255 Blanc-Sablon Airport Cap Whittle Chevery Natashquan Airport Heath Point Miscou Island Grand Étang Ingonish Beach North Mountain St.Paul Island J.A. Douglas McCurdy Sydney Airport Charlottetown Airport East Point North Cape Argentia Bonavista Burgeo Cape Race Corner Brook Daniel's Harbour Englee Ferolle Point La Scie Port aux Basques Rocky Harbour Sagona Island St. Anthony Airport St. John's Int'l Airport St. Lawrence Stephenville Airport Twillingate Winterland Wreckhouse Cartwright Airport Mary's Harbour Grates Cove Pool's Island Marticot Island Long Pond Îles de la Madeleine Airport
Legend: buoyBuoy land stationLand Station